User: anonymous   Login
Location: The Jewett Observatory
(46.7288°N, 117.1525°W)
Time: 13:24:21
(UTC-07:00)
Language:

Cosmos 1633 - Orbit

View from above orbital plane
View from above orbital plane
View from above satellite
View from above satellite

Ground track
Ground track

The orbit data is extracted from the following two-line orbital elements,

1 15592U 85020A   17230.50897342  .00001406  00000-0  49133-4 0  9993
2 15592  82.5361 256.8624 0012378 322.9831  37.0553 15.28633008773816
Epoch (UTC): 18 August 2017 12:12:55
Eccentricity: 0.0012378
inclination: 82.5361°
perigee height: 471 km
apogee height: 488 km
right ascension of ascending node: 256.8624°
argument of perigee: 322.9831°
revolutions per day: 15.28633008
mean anomaly at epoch: 37.0553°
orbit number at epoch: 77381

The dashed part of the orbit path shows where the satellite is in the earth's shadow,  

DLR